Wind_Speed
5 4 3 4 4 4 4 4 4 4 3 3 3 3 3 3 3 2 2 2 2 2 2 1 1 1 1 2 2 2 2 2 2 3 4 4 5 5 5 6 6 6 6
5 4 4 3 3 2 3 3 3 2 2 1 1 1 2 2 2 2 2 2 2 2 2 2 1 1 2 2 3 3 3 3 3 4 5 5 6 6 7 7 7 7 7
5 4 3 2 2 2 1 1 1 1 1 1 1 1 1 1 2 2 2 2 2 2 3 3 3 3 3 3 3 4 3 4 5 5 5 6 7 8 8 8 9 9 9
6 5 3 2 2 1 1 1 1 0 1 1 2 2 2 2 2 2 2 3 3 3 3 4 4 4 4 4 5 5 5 5 5 6 7 7 8 9 9 10 10 10 10
6 6 4 4 3 3 3 2 2 2 2 2 2 2 2 3 3 3 3 3 4 4 5 5 6 6 6 6 6 6 6 7 7 7 7 7 8 9 10 10 11 11 11
7 6 5 4 4 3 3 2 3 3 3 3 3 3 3 3 4 4 4 5 5 6 6 7 8 8 8 7 7 7 7 7 8 9 9 9 9 10 10 11 12 12 12
6 6 5 4 4 3 3 3 4 4 5 5 4 5 4 4 5 5 5 6 6 7 7 8 9 9 9 9 9 8 8 9 9 10 10 10 10 11 11 12 12 13 14
6 6 5 5 4 4 4 5 5 5 5 6 6 6 5 6 6 6 7 7 7 8 9 10 10 11 10 10 10 10 11 10 10 10 10 11 11 12 12 13 13 14 14
8 7 6 5 5 4 5 5 5 6 6 6 6 7 7 7 7 8 8 8 9 10 10 11 10 10 11 11 11 11 11 10 11 11 12 12 13 13 14 15 15 15 15
9 7 6 6 6 6 6 6 6 6 7 6 7 8 8 8 8 9 9 9 9 11 11 11 11 11 12 12 12 12 12 12 12 13 13 14 15 15 15 16 17 17 17
10 8 8 8 7 7 7 6 6 7 7 7 8 8 9 9 9 10 10 10 11 11 12 12 12 13 12 13 12 13 13 13 14 14 14 15 16 17 18 18 18 19 19
11 10 9 9 8 8 8 8 7 7 8 8 9 9 9 10 10 11 11 11 11 12 13 13 14 14 13 13 13 14 14 14 15 16 17 17 18 18 19 20 20 20 20
11 10 10 9 9 9 9 8 8 9 9 9 10 11 11 12 12 12 12 12 13 14 14 14 14 15 15 14 14 14 15 16 17 18 19 19 19 20 20 20 21 22 22
12 11 11 10 10 10 9 9 9 10 10 10 11 12 13 14 14 14 13 14 15 15 15 15 15 16 16 15 15 15 16 18 19 19 19 20 20 21 21 21 22 23 24
11 11 11 11 11 10 10 9 10 11 12 12 12 13 14 14 15 15 15 16 16 15 15 16 15 17 17 16 16 17 17 19 20 20 21 21 21 22 22 23 24 25 25
12 11 11 12 12 12 11 11 11 12 12 13 13 13 13 14 15 15 16 16 16 16 16 16 17 18 18 17 18 19 20 20 20 21 21 22 23 24 24 25 26 27 27
13 12 12 12 12 12 12 11 11 12 12 13 13 14 14 15 15 15 16 17 17 18 18 19 19 19 20 20 21 21 22 22 23 23 24 24 25 26 27 28 29 29 29
13 12 12 13 13 12 12 13 13 13 14 14 15 15 16 17 17 17 18 18 19 19 19 20 20 20 22 23 23 24 24 24 25 26 26 27 28 29 29 30 30 29 30
13 14 14 14 14 14 14 14 15 15 15 16 16 16 17 18 18 18 18 19 20 20 21 21 22 22 23 23 25 26 26 26 27 27 28 28 29 30 31 31 31 31 31
14 14 14 14 15 15 16 16 17 17 17 17 17 18 18 19 19 20 20 20 21 21 22 22 23 24 25 26 27 28 28 28 28 29 29 29 30 31 31 32 32 32 33
15 15 16 16 16 17 17 17 17 17 18 18 18 19 20 20 20 20 21 21 22 23 24 24 25 25 26 27 28 29 29 29 30 30 30 29 30 31 31 32 33 34 35
16 17 17 17 17 17 17 17 17 18 18 18 19 20 20 20 20 21 22 23 23 24 24 25 26 27 28 28 28 29 30 29 30 30 30 31 31 31 32 33 33 35 36
18 18 18 18 17 16 16 17 18 19 19 19 19 19 19 20 21 22 23 23 23 24 25 26 26 27 27 28 29 30 30 30 30 31 31 32 32 32 33 34 35 36 36
19 19 19 18 19 18 17 18 18 19 19 19 20 20 21 22 23 23 23 23 24 25 26 26 27 27 28 29 30 31 31 31 31 32 32 33 33 34 34 35 36 37 37
19 20 20 19 18 18 18 19 19 19 19 20 21 22 23 23 23 24 24 24 25 26 27 27 28 29 30 30 30 31 31 31 32 32 33 34 34 35 35 36 37 37 38
21 21 20 19 19 19 19 19 19 19 20 21 22 23 24 24 25 25 26 26 27 28 29 29 29 30 31 31 31 31 32 33 33 33 34 35 36 36 36 37 38 39 39
Wind_Direction
71 73 78 97 92 96 99 105 110 102 93 85 72 68 64 62 52 47 69 65 52 38 14 345 326 299 305 300 290 281 283 287 285 272 252 250 248 244 246 248 249 252 253
61 68 77 86 79 89 94 102 110 92 99 67 47 57 57 49 34 30 31 18 356 348 349 345 331 320 310 298 297 290 279 274 283 279 267 258 254 252 251 253 256 257 256
51 46 48 59 68 82 88 80 71 70 65 11 353 355 353 10 10 348 341 342 329 326 333 339 339 324 310 312 310 306 294 280 280 282 278 268 262 258 257 260 260 260 260
29 23 25 42 39 38 351 330 335 292 301 319 310 306 314 319 328 340 337 345 341 328 318 315 311 303 299 298 301 296 289 290 285 280 280 275 265 262 258 258 260 262 263
24 17 9 15 12 5 355 345 328 292 285 292 305 301 293 301 310 317 315 316 319 320 315 309 306 302 299 300 297 294 294 286 283 285 286 282 275 268 262 259 260 263 264
20 13 8 9 12 357 352 353 339 324 303 291 291 292 297 297 300 301 302 301 304 306 309 307 303 301 300 300 298 290 288 284 281 281 284 281 280 273 267 263 262 263 264
15 14 11 5 356 352 346 339 326 318 308 295 288 290 294 286 289 298 301 303 304 307 309 309 305 305 303 298 298 293 287 286 286 284 281 281 278 275 274 269 266 265 263
357 351 351 355 349 346 338 331 326 315 308 298 290 291 293 291 291 297 300 301 303 304 303 303 306 307 303 300 298 297 287 282 287 290 288 286 283 281 277 272 269 269 267
348 343 339 342 344 337 330 327 324 320 316 308 305 297 291 284 287 290 292 295 300 307 306 305 305 305 302 300 299 299 298 290 288 292 289 286 286 287 284 279 274 273 272
346 344 338 331 329 330 331 325 319 315 312 309 309 308 303 296 289 288 289 293 297 301 304 305 305 303 300 301 298 297 293 289 291 293 291 286 283 283 284 283 280 276 274
347 342 338 332 328 330 326 323 314 312 310 310 313 313 310 305 303 298 294 296 298 300 305 304 303 304 302 298 297 294 290 288 289 291 292 290 287 284 282 281 282 279 275
342 337 333 330 326 322 315 311 309 310 311 309 308 310 308 305 304 301 300 302 301 300 302 302 302 304 301 296 293 290 291 289 288 290 289 289 289 288 284 280 279 278 276
338 333 329 326 320 315 312 307 303 305 306 305 306 307 307 305 304 300 299 301 302 302 305 306 306 306 304 299 296 292 289 288 289 288 288 288 288 289 286 281 278 277 277
337 335 331 325 318 313 308 304 302 303 302 300 302 304 305 304 304 301 297 299 301 301 302 304 303 302 302 301 300 299 295 291 290 290 289 288 289 289 287 284 281 278 278
331 331 329 326 321 315 308 303 304 303 301 300 299 300 303 305 304 301 300 300 301 302 304 303 302 303 301 299 301 302 300 298 294 294 293 289 289 288 288 286 284 283 280
327 327 325 322 319 316 312 304 304 306 306 303 300 302 305 306 305 303 301 301 302 304 305 302 301 302 304 305 303 301 300 299 296 294 292 291 290 289 288 287 285 284 282
331 325 321 319 319 317 317 314 309 309 312 313 309 306 306 306 306 306 300 299 301 301 302 301 299 299 301 303 303 302 300 298 297 296 294 294 292 290 288 287 286 283 282
326 324 318 317 316 316 315 315 313 312 311 311 310 305 305 304 303 304 302 298 297 299 299 299 298 297 299 300 300 300 300 299 298 297 296 294 293 290 291 289 286 284 283
321 319 319 316 315 313 310 311 311 311 309 308 308 307 305 302 301 304 304 303 301 300 299 302 302 301 301 301 301 301 300 299 298 297 295 294 293 291 290 288 285 284 284
318 319 317 315 315 313 310 308 309 308 307 307 307 306 305 304 302 303 304 304 304 304 305 305 303 302 301 301 301 301 301 300 298 297 296 295 294 291 290 288 285 284 285
316 316 315 313 312 312 311 310 311 309 309 307 306 308 307 305 305 304 305 305 304 304 305 305 304 303 302 302 301 301 301 301 302 301 299 298 297 295 293 291 288 287 287
317 315 314 312 311 311 311 311 312 312 313 310 308 309 306 304 305 305 303 304 304 304 305 304 304 305 304 303 303 303 303 303 303 303 302 301 299 298 297 296 293 292 291
314 312 314 315 313 311 308 306 307 308 310 311 312 310 309 308 308 307 307 307 307 305 305 305 305 304 303 303 303 303 302 303 303 304 303 302 301 300 299 297 295 295 294
315 317 316 315 314 312 311 309 309 307 309 311 311 309 309 308 308 308 308 307 306 305 305 306 305 305 306 306 304 302 302 303 303 303 303 302 301 300 299 299 298 296 296
315 316 315 315 315 315 315 313 312 311 310 311 310 309 309 309 309 309 309 308 307 307 307 307 307 307 307 307 306 305 304 303 303 303 302 302 301 300 300 300 299 298 297
312 313 314 315 315 313 312 312 312 310 310 310 310 309 310 310 310 311 309 308 307 308 308 308 307 307 307 307 307 306 306 304 303 303 303 302 301 301 300 300 299 299 298
Height
5897 5897 5897 5897 5898 5898 5899 5899 5900 5900 5900 5901 5901 5901 5901 5901 5901 5901 5901 5901 5901 5901 5901 5900 5900 5900 5900 5900 5900 5900 5900 5900 5900 5900 5900 5900 5901 5901 5902 5902 5902 5902 5903
5898 5898 5898 5898 5899 5899 5900 5900 5900 5901 5901 5901 5902 5901 5901 5901 5901 5901 5901 5901 5901 5901 5901 5900 5900 5900 5900 5899 5900 5899 5899 5899 5899 5899 5899 5899 5900 5900 5900 5901 5901 5901 5901
5900 5899 5899 5900 5900 5900 5900 5901 5901 5901 5901 5902 5902 5901 5901 5901 5902 5901 5901 5901 5900 5900 5900 5900 5900 5899 5899 5899 5899 5899 5898 5898 5898 5898 5898 5898 5898 5898 5899 5899 5899 5899 5899
5901 5900 5900 5900 5900 5901 5901 5901 5901 5901 5901 5901 5901 5901 5901 5902 5901 5901 5901 5901 5900 5899 5900 5899 5899 5899 5898 5898 5898 5897 5897 5897 5897 5897 5897 5896 5896 5896 5896 5897 5897 5897 5897
5902 5901 5901 5900 5901 5901 5901 5901 5901 5901 5901 5901 5901 5901 5901 5901 5901 5901 5900 5900 5899 5899 5899 5899 5898 5898 5897 5897 5896 5896 5896 5895 5895 5895 5895 5894 5894 5894 5894 5894 5895 5895 5895
5903 5902 5901 5901 5901 5901 5901 5900 5900 5900 5900 5900 5900 5900 5900 5900 5900 5900 5899 5899 5898 5898 5898 5897 5897 5896 5896 5895 5895 5894 5894 5893 5893 5893 5893 5892 5892 5892 5892 5892 5892 5892 5892
5903 5902 5901 5901 5901 5900 5900 5900 5900 5900 5899 5899 5899 5899 5899 5899 5899 5899 5898 5898 5897 5897 5896 5896 5895 5894 5894 5893 5893 5892 5891 5891 5891 5890 5890 5890 5889 5889 5889 5889 5889 5889 5889
5903 5902 5902 5901 5900 5900 5900 5900 5899 5899 5899 5898 5898 5898 5898 5899 5898 5897 5897 5897 5896 5895 5895 5894 5893 5893 5892 5891 5890 5890 5889 5889 5888 5888 5888 5887 5887 5886 5886 5886 5886 5886 5885
5903 5902 5901 5900 5900 5900 5900 5899 5899 5898 5898 5897 5897 5897 5897 5897 5897 5896 5895 5895 5894 5893 5893 5892 5891 5890 5890 5889 5888 5888 5887 5887 5886 5885 5885 5884 5884 5883 5883 5883 5882 5882 5881
5902 5901 5900 5900 5899 5899 5898 5898 5898 5897 5896 5896 5895 5895 5895 5895 5895 5894 5894 5893 5892 5891 5891 5890 5889 5888 5887 5886 5885 5885 5884 5884 5883 5883 5882 5881 5881 5880 5879 5879 5878 5878 5877
5902 5900 5899 5899 5898 5898 5897 5897 5896 5896 5895 5895 5894 5893 5893 5892 5892 5892 5891 5891 5890 5889 5888 5888 5887 5885 5884 5883 5882 5882 5881 5880 5880 5879 5878 5878 5877 5876 5875 5874 5874 5873 5873
5901 5899 5898 5897 5897 5896 5896 5895 5894 5894 5894 5893 5893 5892 5891 5890 5890 5889 5889 5888 5887 5887 5886 5885 5884 5882 5881 5880 5879 5878 5878 5877 5876 5875 5875 5874 5872 5871 5870 5870 5869 5868 5868
5899 5898 5897 5897 5896 5895 5894 5893 5893 5892 5892 5891 5891 5890 5889 5888 5887 5887 5886 5885 5885 5884 5883 5882 5880 5879 5878 5876 5875 5874 5874 5873 5872 5871 5870 5869 5868 5866 5865 5864 5864 5863 5862
5899 5897 5896 5895 5894 5893 5892 5891 5891 5891 5890 5889 5889 5888 5887 5886 5885 5884 5883 5883 5881 5881 5880 5879 5877 5876 5874 5872 5871 5871 5870 5868 5867 5866 5865 5864 5863 5861 5860 5859 5858 5857 5856
5898 5896 5895 5894 5893 5892 5891 5890 5889 5888 5888 5887 5886 5885 5884 5883 5882 5881 5880 5879 5879 5877 5876 5875 5874 5872 5870 5868 5867 5867 5865 5864 5862 5861 5860 5858 5857 5856 5854 5853 5852 5850 5849
5896 5895 5893 5892 5891 5890 5889 5888 5887 5886 5885 5884 5883 5882 5881 5880 5879 5878 5877 5876 5875 5874 5872 5871 5870 5868 5866 5865 5864 5862 5861 5859 5857 5855 5854 5852 5851 5849 5848 5846 5845 5844 5842
5894 5893 5891 5891 5889 5888 5887 5886 5885 5884 5883 5881 5880 5879 5878 5877 5876 5874 5873 5872 5871 5870 5868 5867 5865 5863 5862 5861 5859 5857 5855 5854 5851 5850 5848 5846 5844 5843 5841 5839 5837 5836 5834
5893 5891 5890 5889 5888 5886 5885 5884 5883 5881 5880 5879 5878 5876 5875 5874 5872 5871 5870 5868 5866 5865 5864 5862 5860 5859 5857 5855 5853 5851 5849 5847 5845 5843 5841 5839 5837 5835 5833 5831 5829 5827 5826
5891 5890 5888 5887 5885 5884 5883 5882 5880 5879 5877 5876 5874 5873 5872 5870 5869 5867 5865 5864 5862 5861 5859 5857 5855 5853 5851 5849 5847 5845 5843 5841 5839 5836 5834 5831 5829 5827 5824 5822 5820 5818 5817
5889 5887 5886 5885 5883 5882 5880 5879 5877 5876 5874 5872 5871 5869 5868 5866 5865 5863 5861 5859 5857 5856 5854 5852 5850 5848 5845 5843 5841 5838 5835 5833 5831 5828 5826 5823 5821 5818 5816 5813 5811 5809 5807
5887 5885 5884 5882 5880 5879 5877 5875 5874 5872 5870 5869 5867 5865 5864 5862 5860 5858 5856 5854 5853 5851 5848 5846 5844 5841 5839 5836 5834 5831 5828 5825 5822 5820 5817 5815 5812 5809 5807 5804 5801 5799 5797
5884 5882 5881 5879 5877 5875 5874 5872 5870 5869 5867 5865 5863 5861 5859 5858 5855 5853 5851 5849 5847 5845 5843 5840 5837 5835 5832 5829 5826 5823 5821 5818 5815 5812 5809 5806 5803 5800 5797 5794 5791 5789 5786
5881 5879 5878 5876 5873 5872 5870 5868 5867 5865 5863 5861 5859 5857 5855 5853 5851 5849 5846 5844 5841 5839 5836 5834 5831 5828 5825 5822 5819 5816 5813 5810 5807 5803 5800 5797 5794 5791 5788 5784 5781 5778 5775
5878 5876 5874 5872 5870 5868 5866 5864 5862 5861 5859 5857 5855 5852 5850 5848 5846 5843 5841 5838 5836 5833 5830 5827 5825 5821 5818 5814 5811 5808 5805 5801 5798 5794 5791 5788 5785 5781 5778 5774 5771 5767 5764
5875 5873 5870 5868 5866 5864 5862 5860 5858 5856 5854 5852 5850 5847 5845 5842 5840 5838 5835 5832 5830 5827 5823 5820 5817 5814 5810 5807 5803 5800 5796 5793 5790 5786 5782 5778 5775 5771 5767 5764 5760 5756 5753
5871 5869 5866 5864 5862 5860 5858 5856 5854 5852 5850 5847 5845 5842 5839 5837 5834 5832 5829 5826 5823 5820 5817 5813 5810 5806 5802 5799 5795 5791 5787 5784 5780 5777 5772 5768 5764 5761 5757 5753 5749 5745 5741